Wind_Speed
48 50 49 45 49 51 53 55 55 50 45 52 51 53 46 37 36 32 33 33 34 34 29 34 37 36 34 36 38 37 36 38 39 38 34 35 36 39 39 37 37 38 39 40
50 53 49 50 51 51 53 56 56 54 50 53 53 54 53 48 37 40 32 29 31 29 29 35 34 36 37 37 38 37 37 37 37 39 40 44 42 39 38 38 38 41 40 41
52 54 53 52 56 56 53 57 57 59 54 56 56 57 54 49 44 34 32 32 35 35 34 34 35 28 25 29 32 34 35 34 37 39 42 45 42 44 44 42 44 47 46 46
54 50 49 50 53 55 60 50 55 59 57 59 57 59 57 54 54 48 41 42 30 28 24 28 27 28 33 39 38 38 38 39 38 38 40 43 44 43 45 48 49 50 51 50
53 51 51 50 48 52 52 50 51 53 57 61 62 61 60 61 59 56 51 42 41 39 40 42 43 45 42 41 46 47 47 42 42 43 40 40 43 46 44 47 51 53 54 53
56 56 56 51 51 50 52 54 56 56 56 65 60 58 67 65 62 58 50 48 48 48 53 50 49 50 52 48 46 49 52 50 50 47 45 44 46 47 47 47 51 55 57 57
53 52 53 54 56 58 57 57 60 62 61 60 59 62 66 65 62 61 58 60 58 53 55 56 57 58 57 59 52 51 53 58 57 56 56 54 52 49 48 49 50 54 58 57
47 48 52 54 54 56 58 58 57 61 63 64 62 70 65 64 66 57 59 60 61 65 65 63 63 62 61 63 63 61 54 58 62 66 67 65 63 62 58 54 54 57 59 61
54 55 52 57 58 57 60 63 60 63 64 67 69 67 64 64 62 66 63 66 67 68 69 68 66 67 68 68 65 65 65 62 55 55 63 70 68 64 66 62 60 60 63 66
55 59 64 63 64 63 64 62 61 61 62 68 71 70 67 67 70 73 71 71 72 74 72 72 75 74 74 71 70 64 59 53 57 58 61 61 65 67 65 66 67 65 66 68
65 65 64 67 65 59 55 63 66 65 68 72 74 75 66 68 72 76 81 82 82 78 76 74 73 75 74 68 65 68 62 63 63 65 63 62 62 63 65 66 63 61 67 71
56 64 66 66 64 68 73 72 69 70 71 67 67 68 62 69 72 73 72 72 75 78 77 75 74 72 70 70 72 72 71 68 68 72 74 71 65 65 66 68 67 63 67 65
61 66 68 71 65 64 59 60 60 52 45 51 58 63 61 71 78 75 79 79 79 77 71 73 73 75 78 82 83 82 78 75 74 77 80 73 72 73 73 73 68 61 64 66
65 62 59 50 65 69 72 76 72 69 68 70 63 60 76 69 77 77 80 81 82 83 85 84 86 89 92 89 84 83 81 79 75 76 82 86 79 81 80 78 72 65 65 68
65 68 65 68 68 72 76 74 66 71 75 80 80 83 80 82 80 76 72 71 75 79 82 86 85 87 86 82 82 77 73 72 67 70 80 80 83 88 89 86 76 70 72 72
70 74 73 74 71 74 77 73 71 73 73 75 76 77 77 78 78 78 74 72 77 82 86 87 87 84 78 80 84 74 72 77 77 74 81 82 91 92 90 85 81 79 82 85
72 74 75 79 74 77 81 74 74 74 73 75 77 76 77 80 83 86 86 84 83 86 91 95 89 92 85 89 89 90 95 97 93 93 92 89 87 88 93 96 92 98 86 87
77 77 80 83 80 87 83 79 79 78 78 80 81 82 83 84 85 84 86 88 88 89 89 91 95 98 99 97 99 101 108 108 101 95 93 92 88 95 89 78 74 77 74 79
76 77 81 81 83 87 85 80 79 80 81 81 83 84 84 85 85 83 85 87 88 89 90 92 93 95 97 98 101 100 98 100 101 102 104 105 105 98 96 90 81 81 72 79
70 71 73 77 80 83 84 82 82 82 84 81 81 82 84 85 87 84 83 83 82 83 83 83 83 84 86 88 92 93 94 93 93 94 100 101 103 107 105 101 99 89 84 77
66 65 66 66 68 71 67 68 69 71 71 73 74 75 77 79 79 78 77 78 78 79 80 83 86 88 87 86 87 87 87 88 90 91 94 97 98 94 98 105 102 104 95 86
59 60 61 61 63 65 62 63 63 63 64 66 68 71 74 75 76 76 77 79 81 83 83 84 85 85 83 85 87 86 85 87 88 88 89 91 96 99 100 100 101 102 100 101
53 52 57 57 57 55 55 57 58 60 65 64 67 68 71 74 75 76 78 80 81 82 83 83 85 86 84 84 86 88 86 88 88 89 90 92 93 96 98 99 102 105 102 98
46 48 53 54 50 53 56 58 60 63 65 66 66 67 69 72 74 76 77 78 79 79 79 79 81 82 82 81 82 84 84 85 85 86 86 88 91 92 94 96 96 96 96 95
44 47 49 54 52 57 56 58 59 61 62 63 63 65 66 67 69 72 73 74 75 75 77 80 82 83 82 81 80 80 82 84 84 84 83 83 84 85 87 89 91 92 90 89
45 49 55 56 53 55 58 56 58 58 59 59 60 60 62 64 66 68 69 71 72 73 74 75 75 77 77 77 76 76 76 78 79 78 77 79 80 79 81 82 82 83 84 86
Wind_Direction
275 278 284 284 280 282 283 282 285 288 288 283 280 281 280 280 279 283 284 287 283 278 277 272 274 279 280 280 281 280 277 273 277 278 274 272 272 270 273 272 269 274 273 268
275 278 281 280 279 277 281 284 283 286 284 281 283 280 284 282 289 286 286 279 278 275 265 277 272 274 278 281 285 285 282 280 274 273 273 272 273 272 270 270 270 271 271 266
271 274 277 281 279 277 276 278 282 279 281 280 280 279 279 288 287 282 285 275 279 282 283 275 269 268 270 278 284 284 284 282 283 281 275 278 276 272 269 265 263 267 267 269
270 271 276 277 276 275 271 271 271 276 277 279 277 277 281 285 286 286 279 283 289 274 269 273 258 268 287 288 283 279 280 283 282 281 283 283 278 271 269 269 265 264 265 267
275 274 272 272 272 268 270 269 268 268 272 275 277 281 284 283 286 290 294 290 289 287 272 271 268 265 268 276 282 283 281 274 275 278 277 276 278 279 274 267 264 264 265 266
270 270 273 271 265 262 263 265 268 266 267 269 274 277 278 282 287 287 294 295 282 280 287 281 272 267 272 269 266 271 273 273 273 268 264 263 265 268 271 273 270 266 264 265
276 271 268 264 262 265 269 268 267 266 265 267 271 269 271 276 281 286 287 284 286 282 277 278 280 281 278 277 273 272 270 271 272 269 268 267 264 263 263 263 263 266 269 265
269 267 267 264 265 268 268 270 269 272 269 266 267 268 273 274 277 281 278 280 281 281 283 284 285 285 283 280 278 274 270 265 269 273 274 272 271 267 260 253 252 255 257 262
267 265 267 264 265 267 267 267 271 275 275 271 265 263 267 272 274 278 279 276 277 279 278 279 281 282 284 286 287 288 289 285 275 262 265 270 276 271 267 260 255 250 251 254
275 271 266 270 272 269 273 273 274 274 274 275 269 266 267 269 274 272 275 274 272 273 276 278 280 280 281 281 282 281 280 280 275 268 271 268 266 269 269 265 262 260 254 250
277 275 276 275 272 277 273 275 280 281 278 281 283 276 270 271 272 269 269 272 274 275 275 279 280 279 278 276 276 278 275 275 274 274 274 267 262 261 262 260 261 259 257 254
279 280 275 267 271 271 274 279 283 281 285 285 283 280 279 275 280 281 279 277 276 277 278 277 275 270 265 269 272 268 270 270 268 268 270 268 263 256 255 256 254 256 257 255
280 277 279 285 281 278 279 277 282 281 277 275 272 268 278 281 280 278 279 278 278 278 275 272 267 265 267 271 273 273 268 264 264 264 265 257 253 252 250 248 250 245 249 252
277 275 273 271 274 268 268 272 274 272 269 269 265 267 275 280 276 276 276 276 275 274 274 272 268 267 272 274 272 272 269 265 258 259 257 259 254 246 244 241 243 247 250 251
273 273 272 272 270 264 267 270 266 266 269 271 271 271 275 275 276 276 272 271 272 274 275 275 275 272 270 269 266 264 266 266 264 260 257 256 253 248 245 241 239 243 252 252
274 275 274 272 271 270 270 271 272 272 274 273 275 276 274 274 272 269 265 266 270 268 267 269 271 265 264 267 268 265 267 271 267 267 265 266 262 255 246 242 253 252 259 263
272 272 273 273 273 271 269 274 272 273 272 275 276 274 273 272 272 274 275 276 274 271 269 271 267 264 262 262 263 264 270 274 273 271 269 267 266 266 266 262 266 259 269 271
274 273 271 272 272 270 274 272 271 272 272 273 274 275 276 276 277 277 278 278 278 278 276 274 271 269 266 264 268 269 270 271 271 267 266 263 261 264 263 261 260 264 265 263
272 272 273 273 273 274 273 277 277 276 276 277 278 279 280 280 280 280 281 281 281 281 281 280 279 276 274 274 274 273 270 268 267 266 262 261 261 262 260 258 258 256 253 253
273 273 273 274 275 275 275 277 277 278 277 278 278 278 279 280 280 280 282 283 283 283 282 281 279 278 278 277 277 276 275 273 269 265 263 262 262 261 259 258 257 256 256 254
275 275 275 276 277 278 279 281 280 280 282 281 282 282 283 284 285 285 284 283 282 282 281 281 281 281 281 279 277 276 275 274 273 271 267 264 262 261 260 258 256 256 251 249
278 278 279 279 278 281 283 284 284 281 281 282 282 283 283 284 285 285 285 284 284 284 283 283 283 282 282 281 279 276 274 272 270 269 268 267 266 264 260 257 258 259 261 258
277 278 277 278 282 284 284 281 279 282 283 282 282 282 283 284 286 286 286 286 286 286 286 286 286 285 285 283 282 281 279 276 273 270 267 265 264 263 264 263 261 261 261 260
280 278 279 279 281 281 279 280 283 282 282 284 285 286 286 286 286 286 287 288 289 290 290 290 289 287 287 286 285 284 281 279 276 274 270 266 264 263 264 264 262 261 261 260
284 283 284 280 283 282 282 282 282 282 284 286 286 286 287 288 289 290 292 292 292 293 292 291 291 291 289 287 286 284 283 281 279 276 273 271 268 264 261 260 261 261 260 258
287 286 283 284 284 286 285 285 285 286 287 287 288 290 293 294 294 295 296 296 295 294 293 293 292 291 290 289 288 287 284 282 281 278 275 272 269 266 263 260 258 258 258 257
Height
5801 5798 5800 5802 5798 5796 5792 5790 5788 5794 5797 5788 5787 5781 5785 5793 5794 5796 5796 5795 5794 5792 5792 5787 5784 5783 5782 5781 5781 5784 5786 5786 5787 5787 5786 5784 5785 5784 5786 5786 5786 5787 5786 5784
5793 5788 5791 5789 5789 5785 5784 5781 5779 5779 5782 5777 5775 5770 5775 5778 5788 5784 5785 5785 5781 5783 5781 5778 5777 5776 5774 5773 5773 5774 5775 5775 5776 5776 5778 5776 5776 5776 5775 5775 5777 5776 5776 5775
5783 5779 5779 5780 5777 5776 5774 5770 5772 5765 5766 5766 5761 5756 5760 5771 5773 5773 5773 5774 5774 5773 5775 5772 5768 5766 5765 5764 5763 5763 5763 5763 5763 5763 5763 5764 5765 5767 5765 5764 5763 5763 5763 5763
5768 5770 5769 5765 5763 5763 5758 5761 5758 5757 5753 5749 5753 5744 5750 5753 5755 5761 5762 5761 5760 5762 5763 5762 5760 5757 5757 5753 5752 5752 5751 5751 5751 5752 5754 5754 5753 5754 5756 5753 5751 5750 5750 5751
5757 5756 5754 5753 5753 5747 5748 5747 5748 5745 5744 5739 5736 5742 5738 5739 5741 5742 5744 5748 5750 5747 5747 5749 5747 5748 5747 5747 5745 5740 5738 5738 5737 5737 5739 5739 5741 5741 5741 5741 5740 5738 5736 5737
5741 5739 5739 5740 5738 5736 5735 5734 5733 5731 5731 5728 5729 5732 5725 5725 5727 5727 5731 5732 5731 5733 5729 5727 5731 5732 5731 5731 5732 5729 5727 5724 5722 5720 5720 5721 5721 5724 5727 5731 5729 5726 5724 5724
5725 5724 5725 5725 5724 5724 5723 5721 5717 5715 5716 5718 5718 5717 5717 5717 5719 5716 5714 5713 5714 5711 5707 5710 5712 5711 5710 5714 5717 5717 5716 5713 5708 5705 5705 5706 5706 5705 5707 5711 5712 5713 5712 5710
5709 5713 5711 5713 5712 5709 5707 5706 5704 5696 5702 5704 5704 5701 5707 5707 5704 5698 5699 5700 5691 5692 5694 5692 5692 5693 5692 5692 5694 5699 5701 5703 5701 5697 5693 5690 5691 5692 5689 5686 5688 5691 5692 5694
5691 5695 5698 5696 5695 5696 5691 5689 5691 5681 5681 5678 5686 5692 5697 5693 5690 5680 5679 5680 5680 5675 5677 5679 5679 5676 5674 5673 5672 5674 5675 5676 5679 5681 5684 5679 5677 5676 5676 5675 5672 5669 5669 5671
5676 5673 5678 5680 5678 5677 5674 5675 5670 5668 5658 5654 5663 5671 5682 5681 5672 5663 5661 5661 5660 5660 5661 5661 5659 5659 5657 5656 5658 5657 5656 5657 5657 5659 5658 5660 5661 5660 5659 5659 5658 5656 5654 5653
5659 5654 5663 5659 5665 5663 5659 5655 5652 5649 5642 5634 5635 5643 5673 5655 5649 5646 5642 5641 5641 5644 5644 5642 5641 5640 5640 5640 5638 5639 5638 5637 5637 5638 5638 5638 5639 5640 5642 5641 5639 5639 5639 5638
5646 5636 5638 5645 5654 5643 5639 5635 5635 5628 5624 5620 5615 5613 5644 5636 5628 5630 5628 5623 5624 5623 5623 5622 5621 5621 5620 5621 5620 5620 5619 5618 5617 5615 5617 5618 5619 5619 5619 5621 5620 5621 5622 5622
5627 5620 5615 5617 5626 5623 5619 5618 5620 5619 5610 5605 5602 5601 5615 5615 5609 5612 5610 5607 5604 5601 5602 5599 5597 5596 5597 5598 5597 5596 5597 5596 5595 5596 5595 5596 5597 5597 5597 5598 5599 5600 5603 5604
5610 5605 5608 5603 5604 5601 5600 5600 5602 5600 5591 5590 5586 5584 5588 5589 5591 5589 5587 5584 5583 5579 5576 5575 5576 5574 5570 5570 5569 5570 5569 5569 5572 5570 5571 5572 5574 5574 5574 5574 5576 5579 5581 5583
5592 5585 5587 5587 5585 5581 5578 5578 5585 5582 5575 5564 5570 5563 5570 5563 5566 5567 5563 5561 5559 5557 5555 5551 5548 5546 5544 5543 5544 5544 5544 5543 5545 5548 5548 5549 5550 5549 5550 5551 5550 5551 5554 5556
5572 5563 5562 5561 5567 5557 5552 5560 5563 5561 5554 5545 5544 5542 5544 5537 5537 5539 5539 5536 5536 5537 5536 5532 5528 5525 5522 5520 5520 5519 5517 5516 5518 5519 5522 5524 5524 5524 5525 5524 5524 5526 5527 5529
5554 5548 5542 5531 5543 5533 5524 5546 5541 5536 5537 5529 5524 5521 5517 5514 5512 5512 5512 5509 5510 5510 5510 5508 5506 5502 5500 5497 5495 5494 5492 5492 5491 5490 5492 5494 5495 5495 5494 5495 5495 5496 5497 5500
5529 5530 5520 5510 5517 5500 5515 5519 5517 5516 5514 5508 5500 5495 5491 5489 5488 5490 5487 5485 5485 5483 5482 5481 5478 5476 5475 5470 5465 5467 5463 5460 5460 5461 5461 5461 5466 5467 5468 5468 5468 5469 5471 5475
5513 5507 5494 5490 5492 5485 5491 5494 5493 5490 5490 5485 5478 5472 5468 5463 5464 5474 5462 5461 5460 5457 5455 5451 5449 5448 5448 5444 5435 5432 5431 5429 5427 5427 5428 5429 5431 5435 5437 5439 5440 5442 5446 5450
5491 5485 5476 5474 5466 5465 5471 5472 5470 5466 5461 5462 5456 5451 5445 5439 5439 5449 5439 5436 5433 5429 5426 5422 5421 5419 5418 5415 5406 5403 5400 5398 5396 5396 5394 5395 5396 5399 5403 5406 5410 5415 5417 5423
5467 5463 5457 5455 5448 5446 5453 5449 5447 5444 5444 5434 5432 5430 5424 5418 5417 5418 5420 5412 5409 5405 5403 5397 5394 5391 5390 5385 5378 5375 5371 5368 5364 5363 5363 5361 5362 5364 5367 5370 5375 5378 5385 5391
5447 5446 5443 5437 5432 5430 5435 5431 5429 5423 5420 5417 5415 5411 5404 5401 5397 5396 5393 5390 5384 5381 5379 5373 5364 5362 5362 5354 5347 5345 5343 5337 5334 5332 5331 5331 5329 5329 5333 5337 5341 5345 5350 5356
5431 5432 5423 5424 5420 5420 5418 5412 5409 5405 5397 5402 5397 5395 5388 5381 5379 5375 5370 5367 5361 5353 5347 5343 5336 5333 5332 5323 5314 5310 5310 5302 5300 5300 5300 5298 5297 5297 5297 5300 5306 5309 5317 5326
5420 5417 5410 5406 5414 5405 5401 5398 5394 5390 5385 5383 5379 5373 5368 5361 5358 5352 5348 5343 5336 5331 5322 5314 5308 5303 5301 5295 5288 5279 5274 5269 5266 5265 5265 5265 5265 5268 5268 5270 5274 5278 5285 5292
5408 5402 5399 5392 5394 5385 5387 5381 5376 5374 5369 5365 5360 5354 5348 5343 5339 5332 5329 5323 5316 5309 5300 5292 5283 5275 5271 5263 5259 5251 5243 5236 5233 5231 5231 5231 5231 5234 5237 5239 5243 5247 5256 5261
5393 5387 5379 5376 5379 5367 5368 5365 5360 5356 5352 5347 5343 5339 5334 5327 5321 5315 5311 5303 5294 5286 5277 5268 5260 5248 5242 5235 5230 5221 5214 5205 5200 5200 5200 5198 5198 5201 5203 5206 5213 5217 5225 5231